星链-1340 (STARLINK-1340 )

导读

STARLINK-1340是美国SpaceX公司星链(Starlink)星座的第一代卫星,于2020年4月22日发射升空,部署在近地轨道。星链星座旨在为全球提供高速低延迟宽带互联网服务,尤其覆盖基础设施匮乏区域。该卫星采用氪离子推进,设计寿命约5年,服务全球互联网接入,当前已接近设计寿命终点,将在退役后受控再入大气层销毁。

基本信息
目录编号:
45583
目录名称:
STARLINK-1340
国际标识:
2020-025BE
轨道中心:
EARTH
卫星名称:
星链-1340
卫星全名:
星链-1340 (STARLINK-1340 )
卫星状态:
已陨落 最后检测时间 2024-08-07
发射日期:
2020-04-22 UTC
国别 :
美国 (US)
星等 :
--
轨道信息
数据来源 国际轨道数据
星历时间: 2024-08-07T22:07:14+0800
轨道信息已过期676天
半长轴: 6588.994km
偏心率: 0.0008872
轨道倾角: 53.030°
近地点辐角 243.644°
升交点赤经 90.260°
平近点角 224.342°
近地点: 205.013km
远地点: 216.705km
周期: 88.713分钟
每日圈数: 16.232077
详细信息
固有亮度:
5
最大亮度:
2.5
卫星平台:
Starlink V1.0
覆盖范围:
全球
运营商:
太空探索技术公司
运营商所在国:
美国
制造商(研发单位):
太空探索技术公司
制造商所在国:
美国
使用方式:
暂无
卫星简介
星链(Starlink)计划是由太空探索技术公司(SpaceX)提出的一个巨型低轨卫星互联网星座项目,计划在2019年至2024年间在太空搭建由约1.2万颗卫星组成的“星链”网络,其中1584颗将部署在地球上空550千米处的近地轨道,并从2020年开始工作。该卫星仍在工作。